Tracking 19245 objects as of 15-Aug-2018
HD Live streaming from Space Station
objects crossing your sky now

OBJECT J

Track OBJECT J now!
10-day predictions


NORAD ID: 43200
Int'l Code: 2018-015J
Perigee: 457.5 km
Apogee: 502.1 km
Inclination: 97.5 °
Period: 94.1 minutes
Semi major axis: 6850 km
RCS: Unknown
Launch date: February 2, 2018
Source: (TBD)
Launch site: Jiuquan Satellite Launch Center, China (JSC)
aabbcc
Your satellite tracking list
Your tracking list is empty




NASA's NSSDC Master Catalog

Two Line Element Set (TLE):
1 43200U 18015J   18225.85923395 +.00002425 +00000-0 +82229-4 0  9996
2 43200 097.4652 358.4620 0032549 027.8822 332.4150 15.31049643029436
Source of the keplerian elements: AFSPC